Weather in Khujir

Russia / Irkutsk Oblast     53°11′36″N   107°20′37″E
temp.,
°C
wind,
m/s
gust,
m/s
humid.,
%
clouds,
%
prec.,
mm/h
press.,
hPa
HPBL,
m
17 june, thu
thu1723:00+5sw4490100 0.1 101141
02:00+5ssw449319 0.4 101246
05:00+5ssw349520 0.0 101238
08:00+6sw339218 0.0 101240
11:00+9wsw22815 0.0 101151
14:00+11wsw23755 0.6 100966
17:00+13nw55573 0.5 100889
20:00+13nw34612 0.5 100853
18 june, fri
fri1823:00+10wnw55690 0.0 100836
02:00+10w44700 0.0 100728
05:00+9wnw44745 0.0 100734
08:00+10wnw346723 0.0 100546
11:00+13n45586 0.0 100464
14:00+14nw775398 0.0 100398
17:00+14n4452100 0.0 100392
20:00+12nne226495 0.0 100536
19 june, sat
sat1923:00+10wnw5571100 0.0 100516
02:00+9nnw237699 0.0 100614
05:00+8nw447728 0.0 100620
08:00+10wnw226717 0.0 100553
11:00+11e227081 0.0 100690
14:00+8ne338378 0.0 100754
17:00+10nne22757 0.0 100634
20:00+10ne12765 0.0 100612
20 june, sun
sun2023:00+11nne22714 0.0 100610
02:00+9ne347888 0.0 100715
05:00+8ne448185 0.0 100831
08:00+8ene668189 0.0 100853
11:00+8ene568298 0.0 100860
14:00+9ene4478100 0.0 100749
17:00+10ene44753 0.3 100635
20:00+11ene45724 0.4 100626
21 june, mon
mon2123:00+11ne3375100 0.1 100712
02:00+10ne337939 0.2 100814
05:00+8nne11860 0.0 101010
08:00+8ene22895 0.0 101122
11:00+8nne119219 0.0 101142
14:00+11wnw118342 0.0 101044
17:00+10nnw238952 0.1 101038
20:00+11e228613 0.5 100911